Flag for Israel Weather past 2 weeks in Petah Tikva, Israel

Now
68 °F

Scattered clouds.


Feels Like: 68 °F
Forecast: 57 / 69 °F
Wind: 15 mph from West

Location: Ben Gurion International Airport

Current Time: Mar 30, 2015 at 4:26:11 PM

Latest Report: Mar 30, 2015 at 3:50 PM


Visibility: N/A

Pressure: 29.98 "Hg

Humidity: 56%

Dew point: 52 °F

Location of Petah TikvaLocation

Historic Weather in Petah Tikva — Graph

°F

Petah Tikva temperature yesterday

Maximum temperature yesterday: 77 °F (at 10:50 AM)
Minimum temperature yesterday: 63 °F (at 4:20 AM)
Average temperature yesterday: 68 °F

Past Weeks' High & Low Weather Summary

 TemperatureHumidityPressure
High90 °F (Mar 27, 2:20 PM)88% (Mar 17, 5:50 AM)30.18 "Hg (Mar 17, 5:50 AM)
Low48 °F (Mar 23, 5:50 AM)17% (Mar 27, 2:20 PM)29.62 "Hg (Mar 28, 4:50 AM)
Average64 °F59%30.00 "Hg
* Reported Mar 15 2:20 PM — Mar 30 3:20 PM, Petah Tikva, Weather by CustomWeather, © 2015

Note: Actual official high and low records may vary slightly from our data, if they occured in-between our weather recording intervals... More about our weather records

Advertising

Petah Tikva weather history for previous 24 hours

 ConditionsComfort  
Time TempWeatherWind HumidityBarometerVisibility
3:20 PM
Mon, Mar 30
68 °FScattered clouds.16 mph56%29.98 "HgN/A
2:50 PM68 °FScattered clouds.15 mph64%29.98 "HgN/A
2:20 PM68 °FScattered clouds.15 mph64%29.98 "HgN/A
1:50 PM70 °FScattered clouds.17 mph60%29.98 "HgN/A
1:20 PM70 °FScattered clouds.16 mph60%29.98 "HgN/A
12:50 PM70 °FPassing clouds.20 mph53%29.98 "HgN/A
12:20 PM70 °FPassing clouds.18 mph53%29.98 "HgN/A
11:50 AM70 °FPassing clouds.17 mph50%29.98 "HgN/A
11:20 AM72 °FPassing clouds.13 mph41%29.98 "HgN/A
10:50 AM70 °FSunny.12 mph46%29.98 "Hg10 mi
10:20 AM68 °FSunny.10 mph53%29.98 "Hg10 mi
9:50 AM68 °FSunny.7 mph56%29.98 "Hg10 mi
9:20 AM66 °FSunny.7 mph56%29.98 "Hg10 mi
8:50 AM64 °FSunny.5 mph60%29.95 "Hg10 mi
8:20 AM61 °FSunny.2 mph63%29.95 "Hg10 mi
7:50 AM61 °FSunny.3 mph63%29.95 "Hg10 mi
7:20 AM57 °FClear.3 mph72%29.95 "Hg10 mi
6:50 AM57 °FClear.5 mph72%29.92 "Hg10 mi
6:20 AM57 °FClear.5 mph72%29.92 "Hg10 mi
5:50 AM55 °FClear.1 mph82%29.92 "Hg10 mi
5:20 AM57 °FClear.3 mph77%29.92 "Hg10 mi
4:50 AM57 °FClear.6 mph77%29.92 "Hg10 mi
4:20 AM57 °FClear.5 mph82%29.92 "Hg10 mi
3:50 AM57 °FClear.2 mph88%29.92 "Hg10 mi
3:20 AM59 °FClear.2 mph82%29.89 "Hg10 mi
2:50 AM59 °FClear.1 mph82%29.89 "Hg10 mi
2:20 AM61 °FClear.3 mph83%29.92 "Hg10 mi
1:50 AM61 °FClear.3 mph83%29.92 "Hg10 mi
1:20 AM61 °FClear.7 mph83%29.92 "Hg10 mi
12:50 AM63 °FClear.7 mph83%29.92 "Hg10 mi
12:20 AM63 °FClear.5 mph83%29.92 "Hg10 mi
11:50 PM
Sun, Mar 29
63 °FClear.2 mph77%29.92 "Hg10 mi
11:20 PM64 °FPassing clouds.2 mph78%29.95 "HgN/A
10:50 PM64 °FPassing clouds.3 mph73%29.95 "HgN/A
10:20 PM64 °FPassing clouds.5 mph73%29.92 "HgN/A
9:50 PM64 °FPassing clouds.10 mph78%29.92 "HgN/A
9:20 PM64 °FPassing clouds.13 mph78%29.92 "HgN/A
8:50 PM64 °FPassing clouds.13 mph83%29.92 "HgN/A
8:20 PM64 °FPassing clouds.10 mph83%29.89 "HgN/A
7:50 PM66 °FScattered clouds.13 mph73%29.86 "HgN/A
7:20 PM66 °FSunny.9 mph64%29.86 "Hg10 mi
6:50 PM68 °FSunny.9 mph60%29.83 "Hg10 mi
6:20 PM70 °FSunny.8 mph53%29.83 "Hg10 mi
5:50 PM72 °FSunny.10 mph50%29.83 "Hg10 mi
5:20 PM72 °FSunny.14 mph50%29.83 "Hg10 mi
4:50 PM73 °FSunny.13 mph44%29.80 "Hg10 mi
4:20 PM75 °FSunny.7 mph41%29.80 "Hg10 mi
Weather by CustomWeather, © 2015

See weather overviewHow to use our weather pages